Location: Corte Bragagnani
(45.3000°N, 11.1000°E)
Time: 10:02:28
(UTC+00:00)

Cosmos 2058 Rocket - Pass Details

Date: 09 April 2020
Orbit: 610 x 639 km, 82.5° (Epoch: 06 June)

Event Time Altitude Azimuth Distance (km) Brightness Sun altitude
Rises 18:52:11 0° 177° (S) 2,929 6.3 -10.5°
Reaches altitude 10° 18:54:26 10° 174° (S) 2,025 5.4 -10.9°
Maximum altitude 18:58:52 60° 95° (E) 735 3.1 -11.6°
Drops below altitude 10° 19:03:19 10° 16° (NNE) 2,036 5.8 -12.3°
Sets 19:05:35 0° 13° (NNE) 2,946 6.7 -12.7°
